sat.trackr.live / text

‹ back to catalog

STARLINK-36749

NORAD 67734 · 2026-026P

PAYLOAD ACTIVE UNKNOWN

§ Identity

Operator
Country
US
Launch date
2026-02-11
Launch site
AFWTR
Launch vehicle
Mass (kg)
RCS (m²)

Purposes: comms

External: N2YO · Heavens-Above · Gunter

§ Orbital elements

Epoch: 2026-09-19T09:45:49.872672Z

Period
93.91 min
Inclination
97.2868°
Eccentricity
0.0000603
Mean motion
15.33446478 rev/d
Perigee alt
465.1 km
Apogee alt
466.0 km
Semi-major
6,843.7 km
B*
5.0442e-4
RAAN
314.2600°
Arg perigee
263.2518°
Mean anomaly
96.8656°
Rev number
3,381

§ Raw data

STARLINK-367491 67734U 26026P   26262.40682723  .00016245  00000+0  50442-3 0  99982 67734  97.2868 314.2600 0000603 263.2518  96.8656 15.33446478 33811

JSON: /api/v1/satellites/67734 · /tle

For live sub-satellite position, see the globe view (requires WebGL).

§ Visibility from observer

Set your observer location to see the next 7 days of passes ≥ 10°. The values pass through the URL so the page stays shareable.

No JS? Fill the form by hand. The geolocation button needs JavaScript.